This is the latest recevied weather packets stored in our database for station/object WX6HNX-14. If no packets are shown the sender has not sent any weather packets the latest 10 day(s).
| Time | Temp. | Humidity | Pressure | Rain* | Wind** | Luminosity | Snow |
|---|---|---|---|---|---|---|---|
| 1777897736 | 15° C | 59% | 1014.9 hPa | 0 mm | - | - | - |
| 1777897259 | 15° C | 58% | 1014.9 hPa | 0 mm | - | - | - |
| 1777896665 | 15° C | 58% | 1015.1 hPa | 0 mm | - | - | - |
| 1777896365 | 15° C | 58% | 1015.1 hPa | 0 mm | - | - | - |
| 1777896065 | 15° C | 62% | 1015.2 hPa | 0 mm | - | - | - |
| 1777895765 | 15.56° C | 63% | 1015.2 hPa | 0 mm | - | - | - |
| 1777895466 | 15.56° C | 61% | 1015.3 hPa | 0 mm | - | - | - |
| 1777894865 | 15° C | 62% | 1015.1 hPa | 0 mm | - | - | - |
| 1777894565 | 15° C | 63% | 1015.1 hPa | 0 mm | - | - | - |
| 1777893965 | 14.44° C | 65% | 1015.1 hPa | 0 mm | - | - | - |
| 1777893665 | 14.44° C | 66% | 1014.9 hPa | 0 mm | - | - | - |
| 1777893368 | 15° C | 66% | 1014.9 hPa | 0 mm | - | - | - |
| 1777893065 | 15° C | 66% | 1014.9 hPa | 0 mm | - | - | - |
| 1777892764 | 15° C | 65% | 1014.8 hPa | 0 mm | - | - | - |
| 1777892352 | 14.44° C | 66% | 1014.6 hPa | 0 mm | - | - | - |
| 1777891989 | 14.44° C | 66% | 1014.7 hPa | 0 mm | - | - | - |
| 1777891689 | 14.44° C | 66% | 1014.7 hPa | 0 mm | - | - | - |
| 1777891390 | 14.44° C | 66% | 1014.6 hPa | 0 mm | - | - | - |
| 1777891090 | 14.44° C | 66% | 1014.5 hPa | 0 mm | - | - | - |
| 1777890790 | 14.44° C | 66% | 1014.5 hPa | 0 mm | - | - | - |
| 1777890489 | 14.44° C | 66% | 1014.5 hPa | 0 mm | - | - | - |
| 1777890190 | 14.44° C | 67% | 1014.5 hPa | 0 mm | - | - | - |
| 1777889889 | 14.44° C | 67% | 1014.4 hPa | 0 mm | - | - | - |
| 1777889287 | 15° C | 65% | 1014.5 hPa | 0 mm | - | - | - |
| 1777888987 | 15° C | 64% | 1014.5 hPa | 0 mm | - | - | - |
* Rain latest hour (hover to see other rain measurements)
** Current wind speed in m/s (hover to see current wind gust speed)